Port Hedland, Australia

11:08 AM AWST on May 24, 2018 (GMT +0800)
Port Hedland International

Weather History for YPPD - April, 2013

Change the Weather History Date:

Friday, April 19, 2013

  Actual Average Record
Temperature  
Mean Temperature 86 °F -  
Max Temperature 103 °F 90 °F 105 °F (2016)
Min Temperature 70 °F 66 °F 62 °F (1999)
Cooling Degree Days 22    
Growing Degree Days 36 (Base 50)    
Moisture  
Dew Point 65 °F    
Average Humidity 60    
Maximum Humidity 100    
Minimum Humidity 8    
Precipitation  
Precipitation 0.00 in 0.03 in - ()
Sea Level Pressure  
Sea Level Pressure 29.86 in    
Wind  
Wind Speed 8 mph ()    
Max Wind Speed 17 mph    
Max Gust Speed -    
Visibility 6.1 miles    
Events      
Averages and records for this station are not official NWS values.
T = Trace of Precipitation, MM = Missing Value Source: Averaged Metar Reports

Daily Weather History Graph

Daily Weather History Graph

Search for Another Location

Airport or City:

Astronomy

Apr. 19, 2013 Rise Set
Actual Time 6:17 AM AWST 5:51 PM AWST
Civil Twilight 5:55 AM AWST 6:13 PM AWST
Nautical Twilight 5:29 AM AWST 6:39 PM AWST
Astronomical Twilight 5:03 AM AWST 7:05 PM AWST
Moon 1:08 PM AWST (4/19) No Moon Set
Length of Visible Light 12h 18m
Length of Day
11h 33m
First Quarter, 56% of the Moon is Illuminated
Apr 19
First Quarter
Apr 26
Full
May 2
Last Quarter
May 10
New
May 18
First Quarter

Hourly Weather History & Observations

Time (AWST) Temp. Heat Index Dew Point Humidity Pressure Visibility Wind Dir Wind Speed Gust Speed Precip Events Conditions
12:00 AM 75 °F - 72 °F 89% 29.87 in - WSW 5.8 mph - -  
12:00 AM 75.2 °F - 73.4 °F 94% 29.86 in 6.2 mi WSW 5.8 mph - N/A   Unknown
12:30 AM 73.4 °F - 73.4 °F 100% 29.86 in 6.2 mi WSW 6.9 mph - N/A   Unknown
1:00 AM 73.4 °F - 73.4 °F 100% 29.86 in 6.2 mi West 8.1 mph - N/A   Unknown
1:30 AM 73.4 °F - 73.4 °F 100% 29.86 in 6.2 mi West 6.9 mph - N/A   Unknown
2:00 AM 73.4 °F - 73.4 °F 100% 29.86 in 6.2 mi West 8.1 mph - N/A   Unknown
2:30 AM 73.4 °F - 71.6 °F 94% 29.86 in 6.2 mi West 8.1 mph - N/A   Unknown
3:00 AM 73 °F - 72 °F 96% 29.85 in - West 8.1 mph - -  
3:00 AM 73.4 °F - 71.6 °F 94% 29.83 in 6.2 mi West 8.1 mph - N/A   Unknown
3:30 AM 73.4 °F - 73.4 °F 100% 29.86 in 6.2 mi WSW 6.9 mph - N/A   Unknown
4:00 AM 73.4 °F - 71.6 °F 94% 29.86 in 6.2 mi WSW 6.9 mph - N/A   Unknown
4:16 AM 73.4 °F - 71.6 °F 94% 29.86 in 3.7 mi WSW 5.8 mph - N/A   Unknown
4:30 AM 71.6 °F - 71.6 °F 100% 29.86 in 5.0 mi WSW 6.9 mph - N/A   Unknown
4:37 AM 71.6 °F - 71.6 °F 100% 29.86 in 6.2 mi SW 6.9 mph - N/A   Unknown
5:00 AM 71 °F - 70 °F 97% 29.87 in - SW 6.9 mph - -  
5:00 AM 71.6 °F - 69.8 °F 94% 29.86 in 6.2 mi SW 6.9 mph - N/A   Unknown
5:30 AM 69.8 °F - 69.8 °F 100% 29.86 in 6.2 mi SSW 6.9 mph - N/A   Unknown
6:00 AM 71 °F - 70 °F 95% 29.88 in - SW 8.1 mph - -  
6:00 AM 71.6 °F - 69.8 °F 94% 29.89 in 6.2 mi SW 8.1 mph - N/A   Unknown
6:30 AM 69.8 °F - 69.8 °F 100% 29.89 in 6.2 mi SW 8.1 mph - N/A   Unknown
7:00 AM 73.4 °F - 71.6 °F 94% 29.89 in 6.2 mi WSW 8.1 mph - N/A   Unknown
7:30 AM 77.0 °F - 69.8 °F 78% 29.89 in 6.2 mi SW 8.1 mph - N/A   Unknown
8:00 AM 80 °F - 66 °F 54% 29.91 in - SW 10.4 mph - -  
8:00 AM 80.6 °F 82.7 °F 66.2 °F 61% 29.89 in 6.2 mi SW 10.4 mph - N/A   Unknown
8:30 AM 86.0 °F 86.6 °F 62.6 °F 45% 29.89 in 6.2 mi SW 10.4 mph - N/A   Unknown
9:00 AM 89 °F - 60 °F 28% 29.91 in - SW 10.4 mph - -  
9:00 AM 89.6 °F 89.5 °F 60.8 °F 38% 29.92 in 6.2 mi SSW 10.4 mph - N/A   Unknown
9:30 AM 93.2 °F 91.9 °F 57.2 °F 30% 29.92 in 6.2 mi SW 10.4 mph - N/A   Unknown
10:00 AM 95.0 °F 92.7 °F 53.6 °F 25% 29.92 in 6.2 mi SW 10.4 mph - N/A   Unknown
10:30 AM 98.6 °F - 48.2 °F 18% 29.89 in 6.2 mi SSW 11.5 mph - N/A   Unknown
11:00 AM 100.4 °F - 46.4 °F 16% 29.89 in 6.2 mi SW 11.5 mph - N/A   Unknown
11:30 AM 100.4 °F - 44.6 °F 15% 29.86 in 6.2 mi WSW 10.4 mph - N/A   Unknown
12:00 PM 101 °F - 45 °F 8% 29.87 in - WNW 5.8 mph - -  
12:00 PM 100.4 °F - 44.6 °F 15% 29.86 in 6.2 mi WNW 5.8 mph - N/A   Unknown
12:30 PM 102.2 °F 101.4 °F 57.2 °F 22% 29.86 in 6.2 mi West 10.4 mph - N/A   Unknown
1:00 PM 100.4 °F 99.7 °F 57.2 °F 24% 29.83 in 6.2 mi NNW 15.0 mph - N/A   Unknown
1:30 PM 100.4 °F 101.3 °F 60.8 °F 27% 29.83 in 6.2 mi NNW 13.8 mph - N/A   Unknown
2:00 PM 98 °F - 65 °F 24% 29.83 in - NNW 17.3 mph - -  
2:00 PM 98.6 °F 101.0 °F 64.4 °F 32% 29.83 in 6.2 mi NNW 17.3 mph - N/A   Unknown
2:30 PM 100.4 °F 104.9 °F 66.2 °F 33% 29.80 in 6.2 mi NW 15.0 mph - N/A   Unknown
3:00 PM 99 °F - 55 °F 15% 29.82 in - NW 15.0 mph - -  
3:00 PM 98.6 °F 97.2 °F 55.4 °F 24% 29.80 in 6.2 mi NW 15.0 mph - N/A   Unknown
3:30 PM 98.6 °F 97.6 °F 57.2 °F 25% 29.80 in 6.2 mi NW 16.1 mph - N/A   Unknown
4:00 PM 98.6 °F 97.6 °F 57.2 °F 25% 29.80 in 6.2 mi NW 15.0 mph - N/A   Unknown
4:30 PM 98.6 °F 97.6 °F 57.2 °F 25% 29.80 in 6.2 mi WNW 16.1 mph - N/A   Unknown
5:00 PM 97 °F - 55 °F 16% 29.83 in - WNW 15.0 mph - -  
5:00 PM 96.8 °F 95.1 °F 55.4 °F 25% 29.83 in 6.2 mi WNW 15.0 mph - N/A   Unknown
5:30 PM 93.2 °F 92.6 °F 59.0 °F 32% 29.83 in 6.2 mi WNW 12.7 mph - N/A   Unknown
6:00 PM 89 °F - 62 °F 30% 29.84 in - WNW 10.4 mph - -  
6:00 PM 87.8 °F 88.5 °F 62.6 °F 43% 29.83 in 6.2 mi WNW 10.4 mph - N/A   Unknown
6:30 PM 86.0 °F 88.2 °F 66.2 °F 51% 29.83 in 6.2 mi WNW 9.2 mph - N/A   Unknown
7:00 PM 86.0 °F 90.4 °F 69.8 °F 58% 29.86 in 6.2 mi WNW 9.2 mph - N/A   Unknown
7:30 PM 82.4 °F 85.4 °F 68.0 °F 62% 29.86 in 6.2 mi WNW 8.1 mph - N/A   Unknown
8:00 PM 82 °F - 70 °F 58% 29.88 in - West 8.1 mph - -  
8:00 PM 82.4 °F 86.3 °F 69.8 °F 66% 29.86 in 6.2 mi West 8.1 mph - N/A   Unknown
8:30 PM 80.6 °F 83.9 °F 69.8 °F 70% 29.89 in 6.2 mi West 8.1 mph - N/A   Unknown
9:00 PM 79 °F - 69 °F 64% 29.89 in - West 9.2 mph - -  
9:00 PM 78.8 °F - 69.8 °F 74% 29.89 in 6.2 mi West 9.2 mph - N/A   Unknown
9:30 PM 78.8 °F - 69.8 °F 74% 29.89 in 6.2 mi West 9.2 mph - N/A   Unknown
10:00 PM 77.0 °F - 69.8 °F 78% 29.89 in 6.2 mi West 10.4 mph - N/A   Unknown
10:30 PM 77.0 °F - 69.8 °F 78% 29.89 in 6.2 mi West 11.5 mph - N/A   Unknown
11:00 PM 77 °F - 71 °F 76% 29.88 in - WSW 8.1 mph - -  
11:00 PM 77.0 °F - 71.6 °F 83% 29.89 in 6.2 mi WSW 8.1 mph - N/A   Unknown
11:30 PM 77.0 °F - 71.6 °F 83% 29.86 in 6.2 mi West 6.9 mph - N/A   Unknown